Location: Unspecified
(38.8340°N, 0.0000°E)
Time: 23:26:50
(UTC+00:00)

NOAA 16 DEB - Visible Passes

Search period start: 04 April 2026 00:00
Search period end: 14 April 2026 00:00
Orbit: 721 x 749 km, 98.9° (Epoch: 28 March)

Date Brightness Start Highest point End Pass type
(mag) Time Alt. Az. Time Alt. Az. Time Alt. Az.
4 Apr ? 02:34:30 10° E 02:36:41 13° ENE 02:38:52 10° NE visible
4 Apr ? 04:09:31 10° S 04:14:21 71° WSW 04:19:16 10° NNW visible
5 Apr ? 03:24:20 10° SE 03:28:51 40° ENE 03:33:25 10° N visible
5 Apr ? 05:03:39 10° SW 05:07:17 21° W 05:10:57 10° NW visible
6 Apr ? 02:40:56 10° E 02:43:39 15° ENE 02:46:23 10° NNE visible
6 Apr ? 04:16:37 10° S 04:21:25 61° WSW 04:26:17 10° NNW visible
7 Apr ? 03:31:13 10° SE 03:35:51 46° ENE 03:40:32 10° N visible
8 Apr ? 02:47:26 10° ESE 02:50:35 17° ENE 02:53:44 10° NNE visible
8 Apr ? 04:23:42 10° S 04:28:25 52° W 04:33:14 10° NNW visible
9 Apr ? 03:38:03 10° SSE 03:42:47 53° ENE 03:47:35 10° N visible
10 Apr ? 02:53:59 10° ESE 02:57:27 20° ENE 03:00:57 10° NNE visible
10 Apr ? 04:30:45 10° S 04:35:24 45° W 04:40:07 10° NNW visible
11 Apr ? 03:44:53 10° SSE 03:49:41 62° ENE 03:54:34 10° N visible
12 Apr ? 03:00:31 10° ESE 03:04:17 23° ENE 03:08:04 10° NNE visible
12 Apr ? 04:37:46 10° SSW 04:42:19 38° W 04:46:55 10° NNW visible
13 Apr ? 03:51:40 10° SSE 03:56:32 72° ENE 04:01:28 10° N visible
